Volver al catálogo

COSMOS 1732

ActivoMilitarLEO
NORAD 16593·PAYLOAD·🇷🇺 Russia

Lanzado Feb 11, 1986 desde Plesetsk Cosmodrome

Loading…

Próximos Pases (próximas 24 horas)

TLE

ActualizadoSource: Space-Track

Época: Sep 14, 2026, 12:31 UTC

1 16593U 86015A   26257.52220704 -.00000006  00000-0  81418-4 0  9991
2 16593  73.6116 185.6391 0027298 297.3535  62.4731 12.41027946838902

Sigue COSMOS 1732 en tiempo real con AllMySat

Download on the App Store